Location: Hopkins Observatory
(42.6965°N, 73.1843°W)
Time: 02:33:24
(UTC-04:00)

UOSAT-12 - Visible Passes

Search period start: 02 August 2014 00:00
Search period end: 12 August 2014 00:00
Orbit: 595 x 663 km, 64.6° (Epoch: 31 July)

Date Brightness Start Highest point End Pass type
(mag) Time Alt. Az. Time Alt. Az. Time Alt. Az.
02 Aug 8.1 21:22:53 10° NNW 21:27:17 37° NE 21:30:22 17° ESE visible
02 Aug 8.4 23:03:15 10° NW 23:07:20 30° WSW 23:07:42 29° WSW visible
03 Aug 7.2 21:43:15 10° NNW 21:48:00 74° NE 21:50:26 28° SE visible
03 Aug 9.5 23:25:13 10° WNW 23:27:32 14° WSW 23:27:46 14° WSW visible
04 Aug 7.7 22:03:55 10° NW 22:08:31 52° WSW 22:10:33 30° S visible
05 Aug 7.8 20:44:24 10° NNW 20:48:57 44° NE 20:53:23 10° ESE visible
05 Aug 8.9 22:25:04 10° WNW 22:28:51 24° WSW 22:30:44 19° SW visible
06 Aug 7.2 21:04:51 10° NW 21:09:37 89° ENE 21:13:37 14° SSE visible
06 Aug 9.8 22:47:53 10° W 22:49:00 11° WSW 22:50:07 10° WSW visible
07 Aug 8.2 21:25:37 10° NW 21:30:04 42° WSW 21:33:56 13° S visible
08 Aug 9.3 21:46:58 10° WNW 21:50:21 20° WSW 21:53:42 10° SSW visible
09 Aug 7.4 20:26:27 10° NW 20:31:11 75° WSW 20:35:50 10° SSE visible
10 Aug 8.7 20:47:20 10° NW 20:51:36 34° WSW 20:55:48 10° S visible
11 Aug 9.7 21:08:59 10° WNW 21:11:50 16° WSW 21:14:39 10° SSW visible
